EHI
0 0 0 0 0 0 0 1 2 2 1 1 1 2 2 2 1 0 0 0 0 1 3 4 3 1 2 2 1 0 0 0 0 0 0 0 0 0 0 0 0 0 0
0 0 0 0 0 0 0 0 1 1 1 1 1 1 1 1 0 0 0 0 0 1 3 4 3 1 1 2 1 0 0 0 0 0 0 0 0 0 0 0 0 0 0
0 0 0 0 0 1 0 0 0 0 1 1 0 0 0 0 0 0 0 0 0 0 2 4 4 2 2 1 1 1 0 0 0 0 0 0 0 0 0 0 0 0 0
0 0 0 0 0 0 0 0 0 0 0 0 0 0 0 0 0 0 0 0 0 0 1 3 4 3 2 1 1 1 1 0 0 0 0 0 0 0 0 0 0 0 0
0 0 0 0 0 0 0 0 0 0 0 0 0 0 0 0 0 0 0 0 0 0 0 1 2 2 1 0 1 1 1 0 0 0 0 0 0 0 0 0 0 0 0
0 0 0 0 0 0 0 0 0 0 0 0 0 0 0 0 0 0 0 0 0 0 0 0 0 0 0 0 0 0 0 0 0 0 0 0 0 0 0 0 0 0 0
0 0 0 0 0 0 0 0 0 0 0 0 0 0 0 0 0 0 0 0 0 0 0 0 0 0 0 0 0 0 0 1 1 1 0 0 0 0 0 0 0 0 0
0 0 0 0 0 0 0 0 0 0 0 0 0 0 0 0 0 0 0 0 0 0 0 0 0 0 0 0 0 0 0 2 3 2 1 0 0 0 0 0 0 0 0
0 0 0 0 0 0 0 0 0 0 0 0 0 0 0 0 0 0 0 0 0 0 0 0 0 0 0 0 0 0 0 1 2 2 1 0 0 0 0 0 0 0 0
0 0 0 0 0 0 0 0 0 0 0 0 0 0 0 0 0 0 0 0 0 0 0 0 0 0 0 0 0 0 0 0 0 1 1 0 0 0 0 0 0 0 0
0 0 0 0 0 0 0 0 0 0 0 0 0 0 0 0 0 0 0 0 0 0 0 0 0 0 0 0 0 0 0 0 0 0 0 0 0 0 0 0 0 0 0
0 0 0 0 0 0 0 0 0 0 0 0 0 0 0 0 0 0 0 0 0 0 0 0 0 0 0 0 0 0 0 0 0 0 0 0 0 0 0 0 0 0 0
0 0 0 0 0 0 0 0 0 0 0 0 0 0 0 0 0 0 0 0 0 0 0 0 0 0 0 0 0 0 0 0 0 0 0 0 0 0 0 0 0 0 0
0 0 0 0 0 0 0 0 0 0 0 0 0 0 0 0 0 0 0 0 0 0 0 0 0 0 0 0 0 0 0 0 0 0 0 0 0 0 0 0 0 0 0
0 0 0 0 0 0 0 0 0 0 0 0 0 0 0 0 0 0 0 0 0 0 0 0 0 0 0 0 0 0 0 0 0 0 0 0 0 0 0 0 0 0 0
0 0 0 0 0 0 0 0 0 0 0 0 0 0 0 0 0 0 0 0 0 0 0 0 0 0 0 0 0 0 0 0 0 0 0 0 0 0 0 0 0 0 0
0 0 0 0 0 0 0 0 0 0 0 0 0 0 0 0 0 0 0 0 0 0 0 0 0 0 0 0 0 0 0 0 0 0 0 0 0 0 0 0 0 0 0
0 0 0 0 0 0 0 0 0 0 0 0 0 0 0 0 0 0 0 0 0 0 0 0 0 0 0 0 0 0 0 0 0 0 0 0 0 0 0 0 0 0 0
0 0 0 0 0 0 0 0 0 0 0 0 0 0 0 0 0 0 0 0 0 0 0 0 0 0 0 0 0 0 0 0 0 0 0 0 0 0 0 0 0 0 0
0 0 0 0 0 0 0 0 0 0 0 0 0 0 0 0 0 0 0 0 0 0 0 0 0 0 0 0 0 0 0 0 0 0 0 0 0 0 0 0 0 0 0
0 0 0 0 0 0 0 0 0 0 0 0 0 0 0 0 0 0 0 0 0 0 0 0 0 0 0 0 0 0 0 0 0 0 0 0 0 0 0 0 0 0 0
0 0 0 0 0 0 0 0 0 0 0 0 0 0 0 0 0 0 0 0 0 0 0 0 0 0 0 0 0 0 0 0 0 0 0 0 0 0 0 0 0 0 0
0 0 0 0 0 0 0 0 0 0 0 0 0 0 0 0 0 0 0 0 0 0 0 0 0 0 0 0 0 0 0 0 0 0 0 0 0 0 0 0 0 0 0
0 0 0 0 0 0 0 0 0 0 0 0 0 0 0 0 0 0 0 0 0 0 0 0 0 0 0 0 0 0 0 0 0 0 0 0 0 0 0 0 0 0 0
0 0 0 0 0 0 0 0 0 0 0 0 0 0 0 0 0 0 0 0 0 0 0 0 0 0 0 0 0 0 0 0 0 0 0 0 0 0 0 0 0 0 0
0 0 0 0 0 0 0 0 0 0 0 0 0 0 0 0 0 0 0 0 0 0 0 0 0 0 0 0 0 0 0 0 0 0 0 0 0 0 0 0 0 0 0
Wind_Speed
2 2 1 1 1 1 2 2 2 3 3 3 3 3 4 4 4 3 3 8 10 11 14 16 16 16 15 15 15 15 15 15 14 13 12 13 13 13 13 12 11 11 11
2 2 1 1 1 2 2 3 3 3 3 2 3 4 4 4 4 4 4 5 9 11 12 15 16 17 17 16 16 16 16 15 14 14 13 13 13 12 13 13 12 11 10
2 1 1 1 1 1 1 1 2 2 2 2 3 4 3 4 4 4 4 3 5 9 13 14 15 16 17 18 17 17 16 15 15 15 14 13 13 13 12 12 12 12 11
2 2 1 1 1 1 1 1 1 1 1 2 2 3 3 3 4 5 4 5 4 5 8 13 14 15 17 18 18 18 17 16 16 16 15 15 14 14 13 13 13 12 12
2 2 1 0 1 1 1 0 1 1 1 2 3 3 3 3 4 5 5 6 6 6 5 8 13 14 16 18 18 19 19 19 18 18 18 17 16 15 15 14 13 13 13
2 2 1 1 1 1 1 1 1 0 0 1 3 3 2 3 3 4 5 5 5 6 6 7 6 8 15 16 17 18 19 19 19 20 20 19 19 17 16 15 15 15 14
2 2 1 1 1 1 1 1 1 1 0 0 1 2 2 2 3 3 3 3 5 5 6 6 5 5 6 12 15 17 19 20 20 20 20 20 20 18 18 17 16 16 15
2 2 2 1 1 1 2 1 1 1 1 1 1 1 2 3 2 1 2 2 4 3 5 6 6 6 6 5 8 16 19 20 21 20 20 20 20 19 19 19 18 17 17
2 3 3 2 2 2 1 1 1 1 0 1 1 1 1 1 3 2 2 1 2 2 3 4 6 7 7 6 7 11 17 18 20 22 21 20 20 20 20 20 20 19 18
3 3 3 3 3 2 1 1 1 1 1 0 1 0 1 1 1 3 3 2 3 2 3 3 4 6 7 6 7 10 13 15 18 20 21 21 21 21 20 21 22 21 20
4 3 3 3 3 2 2 2 2 1 1 1 1 0 0 0 1 1 3 4 3 3 3 4 3 4 5 6 6 9 12 13 15 17 19 21 22 22 21 22 23 23 23
3 4 3 2 2 1 1 1 1 1 1 1 1 1 1 1 1 1 2 3 3 3 3 3 3 3 3 4 7 9 10 11 13 14 16 18 20 21 22 23 24 24 24
1 2 2 1 1 1 0 1 1 0 0 1 1 1 1 2 1 2 2 2 3 3 3 2 2 3 3 3 4 7 8 9 11 13 13 15 16 18 20 21 23 24 24
1 1 1 1 1 1 1 1 0 0 0 1 1 1 1 2 2 2 2 2 2 3 3 4 2 2 2 2 4 6 5 7 8 10 12 13 14 14 15 17 19 20 21
1 1 1 1 1 1 1 1 0 1 1 1 2 2 2 2 2 3 3 3 3 3 4 3 3 2 3 3 4 4 4 6 7 9 10 12 12 12 12 13 15 16 17
1 1 1 1 2 2 1 1 1 1 2 2 2 2 2 2 2 2 3 3 4 4 4 3 3 4 4 5 5 4 5 7 8 9 10 12 12 12 12 13 14 15 16
1 2 2 2 2 2 2 1 2 2 2 3 3 3 4 3 3 2 2 3 3 4 6 5 3 3 4 5 5 4 4 5 5 8 10 11 11 12 12 13 14 15 15
2 2 2 2 3 3 2 3 3 3 3 4 4 3 4 3 4 3 3 4 4 5 5 7 4 4 5 5 5 5 5 4 5 7 9 10 11 12 12 13 13 14 14
2 2 2 3 4 4 4 4 4 4 4 4 4 4 5 4 5 4 4 4 4 4 5 5 6 4 4 4 4 4 5 4 5 5 8 9 11 11 12 13 13 14 14
3 3 3 4 4 4 4 4 4 4 4 5 5 5 5 5 6 6 5 5 5 5 5 5 6 5 5 4 3 4 4 3 4 4 4 5 7 10 12 13 13 14 14
4 4 4 4 4 4 5 5 5 5 5 5 5 5 6 8 9 7 6 6 5 5 5 5 6 5 5 4 4 3 4 4 4 3 3 3 4 4 7 10 13 15 15
4 4 4 5 5 5 6 8 6 5 5 6 7 6 6 7 8 9 9 9 8 7 7 6 6 7 8 6 5 4 4 3 4 2 2 3 3 4 5 6 10 13 14
4 4 5 5 6 7 10 10 9 6 6 7 7 7 6 6 6 6 8 9 9 10 11 9 9 10 9 7 6 6 6 6 6 3 2 4 3 5 5 6 10 12 14
4 4 5 6 6 8 10 10 10 6 7 8 8 8 8 8 7 6 6 7 8 8 8 8 9 10 9 8 8 7 7 6 6 4 4 5 4 5 5 5 8 11 13
5 5 5 6 7 9 10 10 8 5 6 8 8 7 8 9 10 9 7 8 9 9 8 10 11 11 12 12 9 5 5 5 6 5 5 5 4 4 4 5 7 10 12
5 5 6 6 7 9 10 10 7 4 6 7 7 7 10 11 11 9 7 7 10 9 7 7 7 8 8 9 10 9 8 7 5 5 5 5 4 3 4 3 3 4 6
Wind_Direction
197 198 221 239 236 205 202 219 227 228 225 220 226 233 239 235 227 222 236 238 228 219 215 207 202 201 199 198 196 194 194 191 186 183 183 181 179 176 175 174 171 168 167
186 184 202 224 239 218 197 199 213 227 228 227 235 231 232 236 235 233 230 242 241 230 222 215 208 207 206 204 203 201 199 197 192 188 189 187 184 183 182 181 179 176 173
173 153 160 221 247 231 186 178 203 225 233 231 239 239 233 234 237 239 237 232 241 240 231 222 214 213 213 210 208 207 204 201 197 195 194 192 189 187 188 186 185 183 180
145 134 150 206 227 147 115 138 179 214 243 247 251 253 244 242 245 244 242 237 231 235 235 230 222 218 218 218 215 212 208 207 203 200 199 197 195 192 192 192 190 187 186
127 128 132 129 121 100 87 137 127 175 253 268 261 254 248 246 249 250 245 243 235 233 231 235 233 226 224 224 221 217 214 211 208 205 204 203 201 198 197 196 195 193 192
108 120 118 95 94 92 78 87 113 114 255 277 277 273 261 252 245 245 252 252 244 240 235 234 235 236 231 227 224 222 221 217 212 209 208 208 206 203 200 200 199 198 197
88 111 102 88 89 95 91 114 137 112 21 335 342 318 305 272 257 250 249 249 251 247 239 234 230 234 237 231 229 227 225 223 218 213 211 209 209 206 204 203 203 202 201
72 107 112 105 100 95 71 68 93 106 34 52 120 45 335 336 323 294 270 249 259 255 247 242 232 231 235 232 230 231 229 226 223 218 214 212 211 208 206 206 206 205 204
61 86 100 100 94 101 96 81 104 123 113 13 72 142 149 278 313 322 322 309 295 272 263 253 240 236 233 229 232 236 232 227 224 223 219 215 213 211 208 208 208 208 207
58 77 85 87 85 87 89 73 107 123 130 84 349 1 191 191 260 319 320 320 316 291 285 276 261 246 237 231 229 230 231 227 226 225 222 219 216 213 211 210 211 211 210
38 56 72 77 77 74 75 66 78 98 129 161 192 246 68 52 184 228 293 317 323 297 285 275 266 256 243 236 235 236 232 230 230 229 226 223 220 215 214 214 215 216 215
28 36 58 62 66 65 62 61 76 98 129 168 194 201 187 196 209 208 252 287 299 296 295 279 268 267 252 237 239 240 234 231 229 230 229 225 221 217 215 215 217 219 219
26 10 33 34 33 27 46 78 81 69 167 197 217 224 223 227 213 204 227 263 282 293 300 291 269 272 269 253 247 251 244 237 231 231 233 232 226 222 219 219 218 220 221
218 293 355 357 353 357 14 34 26 305 229 243 245 230 235 241 221 210 213 223 274 287 285 284 294 273 285 278 265 261 257 245 235 231 231 231 225 221 220 220 219 220 221
233 256 311 328 333 339 344 352 302 294 284 267 262 252 244 250 239 234 229 216 228 266 278 275 283 303 304 288 278 266 259 255 246 235 230 228 223 218 217 217 217 217 219
249 282 299 306 313 316 317 302 280 274 266 270 257 258 258 254 254 245 238 233 227 237 261 269 266 288 300 298 292 280 265 262 249 237 229 226 222 217 215 215 215 216 218
242 259 271 281 287 289 292 281 274 271 267 275 275 263 267 263 260 257 245 242 237 228 253 269 261 274 279 285 294 290 273 258 253 242 234 228 223 220 218 217 216 217 218
253 260 268 273 275 272 270 261 271 273 264 272 277 274 275 276 267 264 253 250 247 236 243 270 276 272 265 273 281 285 281 268 255 248 240 235 228 224 222 222 220 219 220
264 272 266 269 272 272 268 262 257 261 257 260 264 265 269 269 269 264 258 256 256 255 239 257 274 273 271 273 281 282 281 278 266 253 244 239 234 228 223 224 223 221 221
255 264 262 265 269 271 266 264 260 260 263 265 262 259 261 256 259 263 262 258 258 261 254 255 267 272 270 271 263 268 279 273 276 271 256 247 237 234 229 225 224 223 222
254 258 265 272 273 269 260 256 257 259 262 272 274 266 263 264 260 255 257 257 255 257 258 256 263 267 266 262 256 253 265 278 276 257 259 247 235 237 232 228 226 224 221
261 262 262 266 272 270 272 271 264 260 263 267 276 279 278 272 274 272 268 264 251 251 255 254 257 259 263 260 256 250 252 261 272 243 242 256 231 241 240 234 227 225 224
252 261 264 263 267 272 275 277 273 261 258 261 264 271 277 276 277 276 279 281 272 259 247 246 254 258 261 254 247 249 242 243 249 250 246 264 244 251 249 246 234 230 229
248 256 263 264 267 273 274 275 276 264 258 260 258 258 263 273 272 267 274 279 278 273 262 251 248 255 258 259 246 249 254 252 254 248 224 252 248 250 253 248 242 234 230
251 253 260 263 265 275 275 274 271 259 261 265 263 257 254 262 267 264 264 272 280 281 271 257 251 257 260 260 250 240 234 233 251 247 207 228 247 252 252 249 243 235 231
250 262 267 263 260 268 275 275 264 244 259 268 270 262 251 252 261 261 255 259 269 274 281 286 276 271 269 267 250 233 230 231 241 250 211 208 234 234 256 241 238 233 230